Location: Peterborough
(44.3091°N, 78.3197°W)
Time: 23:36:02
(UTC-04:00)

Vanguard 1 Rocket - Pass Details

Date: 23 March 2023
Orbit: 655 x 4220 km, 34.3° (Epoch: 02 June)

Event Time Altitude Azimuth Distance (km) Brightness Sun altitude
Rises 22:29:30 0° 214° (SSW) 8,455 12.3 -30.8°
Reaches altitude 10° 22:36:28 10° 206° (SSW) 7,350 11.8 -31.7°
Enters shadow 22:51:08 31° 175° (S) 5,116 10.7 -33.7°
